FW0655 Weather Reports


time (UTC)temp
F
wind
direction
speed
knots
gust
knots
rain 1hr
in
rain 24hr
in
rain mn
in
humidity
%
barometer
mb
20260507070057 43 360 0.0 3.5 0.00 0.30 0.00 82 1011.7
20260507064558 43 302 0.9 4.3 0.00 0.30 0.00 82 1011.4
20260507063055 44 326 2.6 4.3 0.00 0.30 0.00 82 1011.4
20260507061550 44 25 2.6 7.0 0.00 0.30 0.00 83 1011.1
20260507060047 45 349 2.6 8.7 0.00 0.30 0.00 86 1011.0
20260507054551 45 338 3.5 10.4 0.00 0.30 0.00 89 1010.9
20260507053046 45 338 1.7 5.2 0.00 0.30 0.00 91 1010.7
20260507051540 45 248 0.0 0.9 0.00 0.30 0.00 91 1010.8
20260507050039 45 248 0.0 1.7 0.00 0.30 0.00 91 1010.6
20260507044539 45 248 0.9 2.6 0.00 0.30 0.00 91 1010.8
20260507043040 45 248 0.9 1.7 0.00 0.30 0.00 90 1010.7
20260507041535 44 331 1.7 2.6 0.00 0.30 0.00 90 1010.5
20260507040035 44 331 0.0 2.6 0.00 0.30 0.00 90 1010.3
20260507034532 44 331 0.9 2.6 0.00 0.30 0.30 90 1010.5
20260507033032 45 331 0.9 1.7 0.00 0.30 0.30 90 1010.3
20260507031529 45 331 0.0 0.9 0.00 0.30 0.30 89 1010.4
20260507030031 45 331 0.0 1.7 0.00 0.30 0.30 89 1010.3
20260507024528 45 331 0.0 2.6 0.00 0.30 0.30 89 1010.8
20260507023029 45 331 0.0 1.7 0.00 0.30 0.30 89 1010.8
20260507021525 45 331 0.0 1.7 0.00 0.30 0.30 89 1011.0
20260507020024 45 331 0.9 1.7 0.00 0.30 0.30 88 1011.1
20260507014525 46 331 0.0 1.7 0.00 0.30 0.30 88 1011.0
20260507013033 46 331 0.9 2.6 0.00 0.30 0.30 88 1010.7
20260507011534 46 331 0.9 2.6 0.00 0.30 0.30 88 1010.9
20260507010020 46 331 0.0 1.7 0.00 0.30 0.30 87 1010.6
20260507004519 46 331 0.0 1.7 0.00 0.30 0.30 87 1010.4
20260507003019 46 331 0.0 1.7 0.00 0.30 0.30 87 1010.2
20260507001515 46 331 0.0 1.7 0.00 0.30 0.30 87 1010.2
20260507000014 46 331 0.0 1.7 0.00 0.30 0.30 87 1009.7
20260506234513 46 331 0.0 1.7 0.00 0.30 0.30 87 1009.7
20260506233013 46 331 0.9 2.6 0.00 0.30 0.30 87 1009.7
20260506231511 46 331 0.0 1.7 0.00 0.30 0.30 87 1009.6
20260506230010 46 331 0.9 1.7 0.00 0.30 0.30 87 1009.5
20260506224516 46 331 0.9 2.6 0.00 0.30 0.30 87 1009.4
20260506223008 46 330 0.9 7.0 0.00 0.30 0.30 87 1009.2
20260506221506 47 325 1.7 7.8 0.00 0.30 0.30 87 1009.0
20260506220006 47 315 2.6 8.7 0.00 0.30 0.30 88 1008.8
20260506214505 47 324 1.7 7.8 0.00 0.30 0.30 89 1008.9
20260506213002 47 288 1.7 10.4 0.00 0.30 0.30 90 1008.7
20260506211559 47 288 1.7 6.1 0.00 0.30 0.30 90 1008.4
20260506210117 47 315 1.7 4.3 0.00 0.30 0.30 91 1008.1
20260506204555 47 349 2.6 4.3 0.00 0.30 0.30 91 1007.7
20260506203139 47 310 0.9 4.3 0.00 0.30 0.30 91 1007.5
20260506201552 47 323 2.6 3.5 0.02 0.30 0.30 91 1007.0
20260506200052 47 348 1.7 4.3 0.02 0.30 0.30 91 1006.9
20260506194549 47 5 0.9 7.8 0.02 0.31 0.30 91 1007.0
20260506193045 48 304 1.7 4.3 0.03 0.31 0.30 91 1007.1
20260506191550 48 275 0.9 3.5 0.01 0.28 0.28 91 1006.7
20260506190049 48 275 0.9 2.6 0.01 0.28 0.28 91 1006.5
20260506184552 48 275 1.7 5.2 0.01 0.28 0.28 91 1006.3
20260506183041 49 279 0.9 5.2 0.00 0.28 0.27 91 1006.1
20260506181539 49 246 0.9 3.5 0.00 0.28 0.27 91 1005.9
20260506180038 50 228 0.9 3.5 0.00 0.28 0.27 91 1005.7
20260506174535 51 268 1.7 4.3 0.00 0.28 0.27 90 1005.2
20260506173039 52 222 0.9 7.8 0.00 0.28 0.27 90 1004.9
20260506171535 54 254 1.7 4.3 0.00 0.28 0.27 90 1004.6
20260506170030 56 185 1.7 5.2 0.01 0.28 0.27 91 1004.5
20260506164530 58 223 0.0 2.6 0.01 0.28 0.27 92 1004.3
20260506163047 57 200 1.7 7.0 0.01 0.28 0.27 92 1004.2
20260506161529 57 211 2.6 7.0 0.01 0.28 0.27 92 1004.2
20260506160028 57 211 3.5 8.7 0.01 0.27 0.26 92 1004.2
20260506154534 57 210 2.6 7.8 0.03 0.27 0.26 93 1004.3
20260506153028 57 245 2.6 7.8 0.04 0.27 0.26 93 1004.2
20260506151526 56 214 4.3 8.7 0.03 0.26 0.25 93 1004.2
20260506150022 56 202 1.7 5.2 0.03 0.25 0.24 93 1004.4
20260506144521 56 208 0.9 6.1 0.02 0.24 0.23 93 1004.2
20260506143019 56 163 0.9 1.7 0.02 0.23 0.22 93 1004.2
20260506141517 55 163 0.0 1.7 0.04 0.23 0.22 93 1004.3
20260506140025 55 211 0.0 2.6 0.06 0.22 0.21 93 1004.4
20260506134515 54 211 0.9 2.6 0.09 0.22 0.21 92 1004.5
20260506133015 54 211 0.0 1.7 0.10 0.20 0.19 92 1004.7
20260506131519 53 27 0.0 0.9 0.12 0.19 0.18 92 1005.2
20260506130012 52 27 0.0 1.7 0.10 0.16 0.15 92 1005.7
20260506124511 52 27 0.0 1.7 0.08 0.13 0.12 92 1005.4
20260506123010 52 27 0.0 1.7 0.04 0.09 0.08 92 1005.1
20260506121508 52 27 0.0 3.5 0.02 0.06 0.05 92 1005.0
20260506120012 52 30 0.9 1.7 0.02 0.06 0.05 91 1004.8
20260506114508 52 30 0.0 1.7 0.01 0.07 0.04 91 1005.0
20260506113006 52 30 0.0 1.7 0.01 0.07 0.04 91 1005.4
20260506111510 51 30 0.0 2.6 0.01 0.06 0.03 91 1005.5
20260506110009 51 28 0.9 4.3 0.01 0.06 0.03 91 1005.2
20260506104504 52 59 1.7 2.6 0.01 0.06 0.03 90 1005.4
20260506103003 52 130 0.0 1.7 0.01 0.06 0.03 89 1005.5
20260506101501 52 130 0.0 0.9 0.00 0.05 0.02 89 1005.1
20260506100003 52 130 0.0 0.9 0.01 0.05 0.02 89 1004.9
20260506094603 52 130 0.0 1.7 0.01 0.05 0.02 88 1005.1
20260506093101 52 130 0.0 1.7 0.02 0.05 0.02 88 1005.1
20260506091557 52 130 0.0 1.7 0.02 0.05 0.02 87 1005.1
20260506090110 53 130 0.0 1.7 0.01 0.04 0.01 87 1005.4
20260506084616 53 130 0.0 1.7 0.01 0.04 0.01 86 1005.6
20260506083054 53 130 0.0 2.6 0.00 0.03 0.00 85 1005.7
20260506081600 53 69 0.0 2.6 0.00 0.03 0.00 85 1005.8
20260506073052 53 66 0.0 0.9 0.00 0.03 0.00 85 1005.7
20260506071551 53 66 0.0 1.7 0.00 0.03 0.00 85 1005.7